DateTimeUTC,F1_A11,F1_S11,BsB_S11,BsG_S11,BsR_S11,BbsB_S11,BbsG_S11,BbsR_S11,BaB_A11,BaG_A11,BaR_A11,Tu_S11,T_S11,Uu_S11,U_S11,P_S11,T1_A11
2021-06-11T17:00:00Z,00000200,20000000,,,,,,,-000.31,-000.12,-000.15,18.7,25.5,02.6,01.7,0664.1,31.1
2021-06-11T17:01:00Z,00000200,20000000,,,,,,,-000.25,-000.24,-000.12,18.7,25.5,02.6,01.7,0664.1,31.1
2021-06-11T17:02:00Z,00000200,20000000,,,,,,,0000.28,0000.08,0000.25,18.7,25.5,02.6,01.7,0664.1,31.1
2021-06-11T17:03:00Z,00000200,60000000,,,,,,,-000.14,0000.29,0000.19,18.7,25.5,02.6,01.7,0664.1,31.1
2021-06-11T17:04:00Z,00000200,40000000,0003.96,0002.57,0001.13,0000.23,0000.20,0000.45,0001.03,0000.60,0000.31,18.8,25.3,02.5,01.7,0665.0,31.1
2021-06-11T17:05:00Z,00000200,00000000,0003.45,0002.76,0001.37,0000.90,0000.17,0000.40,0000.36,0000.28,0000.36,18.9,25.3,02.5,01.7,0665.1,31.1
2021-06-11T17:06:00Z,00000200,00000000,0004.18,0002.26,0001.44,0000.46,0000.22,0000.58,0000.05,0000.16,0000.21,18.9,25.3,02.6,01.7,0665.1,31.1
2021-06-11T17:07:00Z,00000200,00000000,0003.81,0002.33,0001.46,0000.84,0000.35,0000.36,0000.44,0000.68,0000.28,18.9,25.2,02.7,01.8,0665.1,31.1
2021-06-11T17:08:00Z,00000200,00000000,0003.70,0002.71,0001.26,-000.51,0000.02,0000.36,0000.06,-000.15,0000.36,18.9,25.2,02.6,01.8,0665.1,31.1
2021-06-11T17:09:00Z,00000200,00000000,0004.38,0002.39,0001.31,0000.73,0000.14,0000.35,0000.64,0000.67,0000.39,18.9,25.2,02.7,01.8,0665.1,31.1
2021-06-11T17:10:00Z,00000200,00000000,0003.72,0002.69,0001.53,0000.15,0000.24,0000.26,0000.48,0000.38,0000.17,18.9,25.2,02.7,01.8,0665.1,31.1
2021-06-11T17:11:00Z,00000200,00000000,0003.54,0002.75,0001.43,0000.65,0000.23,0000.21,0000.51,0000.29,0000.38,18.9,25.2,02.7,01.9,0665.1,31.1
2021-06-11T17:12:00Z,00000200,00000000,0004.64,0002.40,0001.43,0000.39,0000.39,0000.39,-000.53,-000.53,-000.25,18.8,25.2,02.8,01.9,0665.0,31.1
2021-06-11T17:13:00Z,00000200,00000000,0004.01,0002.59,0001.64,0000.52,0000.69,0000.47,0000.53,0000.78,0000.36,18.9,25.2,02.8,01.9,0665.0,31.1
2021-06-11T17:14:00Z,00000200,00000000,0003.52,0002.60,0001.65,0000.39,0000.15,0000.35,0000.30,-000.01,0000.24,18.9,25.2,02.7,01.9,0665.1,31.1
2021-06-11T17:15:00Z,00000200,00000000,0003.82,0002.48,0001.38,0000.78,0000.28,0000.09,0000.17,0000.21,0000.29,18.9,25.2,02.7,01.8,0665.0,31.1
2021-06-11T17:16:00Z,00000200,00000000,0003.91,0002.57,0001.52,0000.74,0000.17,0000.45,0000.13,0000.42,0000.33,18.9,25.2,02.6,01.8,0665.1,31.1
2021-06-11T17:17:00Z,00000200,00000000,0004.33,0002.49,0001.31,0000.84,0000.42,0000.42,0000.58,0000.52,0000.43,18.9,25.2,02.7,01.8,0665.1,31.1
2021-06-11T17:18:00Z,00000200,00000000,0003.03,0002.36,0001.37,0000.54,0000.50,0000.41,0000.19,-000.01,0000.01,18.9,25.2,02.8,01.9,0665.1,31.1
2021-06-11T17:19:00Z,00000200,00000000,0003.71,0002.33,0001.47,0000.62,0000.32,0000.40,-000.09,0000.10,0000.43,18.9,25.2,02.7,01.8,0665.1,31.1
2021-06-11T17:20:00Z,00000200,00000000,0003.19,0002.31,0001.25,0000.85,0000.27,0000.26,0000.62,0000.50,0000.07,18.9,25.2,02.7,01.8,0665.1,31.1
2021-06-11T17:21:00Z,00000200,00000000,0002.53,0002.00,0001.62,0000.91,0000.10,0000.59,-000.18,-000.18,0000.51,18.9,25.2,02.8,01.9,0665.1,31.1
2021-06-11T17:22:00Z,00000200,00000000,0002.78,0001.96,0001.59,0000.29,0000.19,0000.50,0000.39,0000.32,-000.40,18.9,25.2,02.7,01.8,0665.1,31.1
2021-06-11T17:23:00Z,00000200,00000000,0003.61,0002.15,0001.39,0000.25,0000.17,0000.54,0000.36,0000.77,0000.37,18.9,25.2,02.7,01.8,0665.1,31.1
2021-06-11T17:24:00Z,00000200,00000000,0003.23,0002.11,0001.31,-000.02,-000.06,0000.38,-000.04,-000.54,0000.05,18.9,25.2,02.7,01.9,0665.1,31.1
2021-06-11T17:25:00Z,00000200,00000000,0002.87,0002.03,0001.29,0000.39,0000.64,0000.46,0000.82,0000.34,0000.59,18.8,25.1,02.6,01.8,0665.1,31.1
2021-06-11T17:26:00Z,00000200,00000000,0003.55,0002.22,0001.45,0000.79,0000.44,0000.23,-000.20,0000.30,-000.15,18.9,25.1,02.7,01.8,0665.1,31.1
2021-06-11T17:27:00Z,00000200,00000000,0002.99,0002.23,0001.14,0000.71,0000.27,0000.19,0000.36,0000.25,0000.39,18.8,25.1,02.5,01.7,0665.1,31.1
2021-06-11T17:28:00Z,00000200,00000000,0003.27,0002.26,0001.42,0000.50,0000.21,0000.26,0000.23,0000.37,0000.17,18.9,25.1,02.6,01.8,0665.1,31.1
2021-06-11T17:29:00Z,00000200,00000000,0002.78,0001.81,0001.45,0000.30,0000.31,0000.32,0000.07,-000.16,0000.30,18.9,25.1,02.6,01.7,0665.1,31.0
2021-06-11T17:30:00Z,00000200,00000000,0002.69,0001.80,0001.18,0000.47,0000.15,0000.41,0000.48,0000.51,0000.51,18.9,25.1,02.6,01.8,0665.1,31.0
2021-06-11T17:31:00Z,00000200,00000000,0003.32,0001.89,0001.46,0000.43,0000.20,0000.32,0000.33,0000.58,-000.00,18.9,25.1,02.7,01.8,0665.1,31.1
2021-06-11T17:32:00Z,00000200,00000000,0003.50,0001.77,0001.12,-000.01,0000.42,0000.56,-000.19,-000.04,0000.31,18.9,25.1,02.7,01.8,0665.0,31.0
2021-06-11T17:33:00Z,00000200,00000000,0003.34,0001.90,0000.85,0000.29,0000.04,0000.32,0000.55,0000.41,0000.37,18.8,25.1,02.6,01.8,0665.0,31.0
2021-06-11T17:34:00Z,00000200,00000000,0003.34,0001.82,0000.90,0000.58,0000.00,0000.43,0000.16,0000.06,-000.32,18.8,25.1,02.6,01.8,0665.1,31.1
2021-06-11T17:35:00Z,00000200,00000000,0002.99,0002.01,0001.11,0000.34,0000.27,0000.31,0000.57,0000.32,0000.63,18.8,25.1,02.7,01.8,0665.1,31.1
2021-06-11T17:36:00Z,00000200,00000000,0003.32,0001.96,0000.98,0000.19,0000.15,0000.41,-000.04,0000.18,-000.27,18.8,25.1,02.7,01.9,0665.1,31.1
2021-06-11T17:37:00Z,00000200,00000000,0002.95,0002.01,0001.37,0000.64,0000.18,0000.58,0000.03,-000.02,0000.75,18.8,25.1,02.7,01.8,0665.1,31.1
2021-06-11T17:38:00Z,00000200,00000000,0003.14,0001.78,0001.34,0000.30,0000.13,0000.61,0000.52,0000.48,0000.34,18.8,25.1,02.6,01.8,0665.1,31.0
2021-06-11T17:39:00Z,00000200,00000000,0003.24,0001.87,0001.29,0000.11,0000.37,0000.24,0000.16,0000.69,0000.21,18.8,25.1,02.7,01.8,0665.1,31.1
2021-06-11T17:40:00Z,00000200,00000000,0002.79,0001.79,0001.49,0000.22,0000.07,0000.46,-000.12,-000.20,-000.07,18.8,25.1,02.6,01.8,0665.1,31.1
2021-06-11T17:41:00Z,00000200,00000000,0003.10,0001.83,0001.21,-000.19,0000.35,0000.29,0000.11,-000.27,-000.08,18.8,25.1,02.5,01.7,0665.1,31.1
2021-06-11T17:42:00Z,00000200,00000000,0003.13,0002.25,0001.16,0000.51,0000.34,0000.43,0000.63,0000.60,0000.32,18.8,25.1,02.6,01.8,0665.1,31.0
2021-06-11T17:43:00Z,00000200,00000000,0003.14,0001.83,0001.37,0000.44,0000.28,0000.47,0000.25,0000.17,0000.20,18.8,25.1,02.6,01.8,0665.1,31.1
2021-06-11T17:44:00Z,00000200,00000000,0002.49,0001.92,0001.20,0000.05,0000.10,0000.03,0000.85,0001.03,0000.74,18.8,25.1,02.7,01.8,0665.1,31.0
2021-06-11T17:45:00Z,00000200,00000000,0002.96,0001.92,0001.00,0000.35,0000.15,0000.35,-000.11,-000.51,-000.08,18.8,25.1,02.8,01.9,0665.1,31.0
2021-06-11T17:46:00Z,00000200,00000000,0002.79,0001.40,0001.41,0000.08,0000.10,0000.41,0000.16,0000.06,-000.06,18.8,25.1,02.7,01.8,0665.1,31.0
2021-06-11T17:47:00Z,00000200,00000000,0003.26,0001.86,0001.35,0000.54,0000.31,0000.51,0000.22,0000.45,0000.66,18.8,25.1,02.6,01.8,0665.1,31.1
2021-06-11T17:48:00Z,00000200,00000000,0002.46,0001.87,0000.91,0000.39,0000.39,0000.02,0000.08,0000.10,0000.05,18.8,25.1,02.6,01.8,0665.1,31.1
2021-06-11T17:49:00Z,00000200,00000000,0003.02,0001.87,0001.28,0000.66,0000.17,0000.54,0000.42,0000.43,-000.05,18.8,25.1,02.7,01.8,0665.1,31.0
2021-06-11T17:50:00Z,00000200,00000000,0002.83,0002.56,0001.12,0000.46,0000.02,0000.21,0000.34,0000.27,0000.58,18.8,25.1,02.7,01.8,0665.1,31.0
2021-06-11T17:51:00Z,00000200,00000000,0003.36,0001.76,0001.30,0000.70,0000.16,0000.32,0000.25,0000.43,0000.26,18.8,25.1,02.7,01.9,0665.1,31.1
2021-06-11T17:52:00Z,00000200,00000000,0003.17,0002.06,0001.27,0000.89,0000.29,0000.60,-000.33,0000.03,0000.33,18.8,25.1,02.8,01.9,0665.1,31.1
2021-06-11T17:53:00Z,00000200,00000000,0003.46,0002.18,0001.18,-000.04,0000.29,0000.63,0000.75,0000.27,-000.12,18.8,25.1,02.7,01.9,0665.1,31.0
2021-06-11T17:54:00Z,00000200,00000000,0003.19,0002.11,0001.40,0000.27,0000.05,0000.52,0000.28,-000.08,0000.04,18.8,25.1,02.7,01.8,0665.1,31.0
2021-06-11T17:55:00Z,00000200,00000000,0003.36,0001.87,0001.32,0000.96,0000.38,0000.40,0000.44,0000.90,0000.84,18.8,25.1,02.8,01.9,0665.1,31.0
2021-06-11T17:56:00Z,00000200,00000000,0003.68,0001.85,0001.39,0000.55,0000.14,0000.41,-000.05,-000.57,-000.05,18.8,25.1,03.0,02.0,0665.1,31.0
2021-06-11T17:57:00Z,00000200,40000000,,,,,,,0000.08,0000.14,0000.03,18.8,25.1,03.1,02.1,0665.1,31.1
2021-06-11T17:58:00Z,00000200,60000000,,,,,,,0000.34,0000.48,-000.13,18.5,25.2,02.6,01.7,0664.1,31.1
2021-06-11T17:59:00Z,00000200,20000000,,,,,,,-000.12,-000.18,0000.13,18.5,25.3,02.6,01.7,0664.1,31.1
